GW2669 Weather Reports


Display with metric or nautical units.
time (UTC)temp
F
wind
direction
speed
MPH
gust
MPH
rain 1hr
in
rain 24hr
in
rain mn
in
humidity
%
barometer
mb
20260902044601 80 128 6.0 9.0 0.00 0.00 0.00 53 1016.3
20260902043109 82 148 5.0 9.0 0.00 0.00 0.00 50 1016.3
20260902041600 83 125 12.0 15.0 0.00 0.00 0.00 48 1016.4
20260902040105 83 147 10.0 14.0 0.00 0.00 0.00 48 1016.3
20260902034606 82 128 9.0 14.0 0.00 0.00 0.00 52 1016.0
20260902033105 82 144 2.0 10.0 0.00 0.00 0.00 51 1015.7
20260902031606 84 135 9.0 13.0 0.00 0.00 0.00 47 1015.6
20260902024604 85 139 9.0 12.0 0.00 0.80 0.00 47 1015.3
20260902023058 85 142 8.0 11.0 0.00 0.80 0.00 49 1015.0
20260902021601 85 134 4.0 9.0 0.00 0.80 0.00 51 1014.7
20260902020104 86 140 6.0 10.0 0.00 0.80 0.00 48 1014.5
20260902014600 87 150 5.0 9.0 0.00 1.31 0.00 45 1014.3
20260902013100 87 138 5.0 9.0 0.00 1.31 0.00 45 1013.6
20260902011559 88 155 1.0 5.0 0.00 1.31 0.00 45 1013.7
20260902010059 89 135 5.0 9.0 0.00 1.31 0.00 42 1013.7
20260902004602 90 153 8.0 12.0 0.00 1.31 0.00 39 1013.6
20260902003100 92 126 7.0 14.0 0.00 1.31 0.00 38 1013.5
20260902001607 93 126 7.0 14.0 0.00 1.31 0.00 36 1013.2
20260901234613 93 142 12.0 16.0 0.00 1.31 0.00 34 1013.4
20260901233108 92 134 9.0 15.0 0.00 1.31 0.00 35 1013.3
20260901231605 92 121 12.0 17.0 0.00 1.31 0.00 39 1013.5
20260901230107 94 119 6.0 12.0 0.00 1.31 0.00 35 1013.5
20260901224604 94 134 5.0 14.0 0.00 1.31 0.00 33 1013.6
20260901223102 93 148 8.0 14.0 0.00 1.31 0.00 35 1013.9
20260901221558 94 195 10.0 19.0 0.00 1.31 0.00 36 1014.0
20260901220118 95 155 9.0 23.0 0.00 1.31 0.00 33 1013.7
20260901214559 95 198 8.0 16.0 0.00 1.31 0.00 34 1013.9
20260901213112 94 257 11.0 17.0 0.00 1.31 0.00 33 1013.9
20260901211558 94 286 12.0 18.0 0.00 1.31 0.00 32 1014.1
20260901210107 97 261 0.0 6.0 0.00 1.31 0.00 28 1014.4
20260901204600 97 0 1.0 3.0 0.00 1.31 0.00 28 1014.7
20260901203059 98 288 1.0 5.0 0.00 1.31 0.00 31 1014.7
20260901201603 97 51 3.0 9.0 0.00 1.31 0.00 31 1015.1
20260901194604 96 0 0.0 1.0 0.00 1.31 0.00 32 1015.4
20260901193114 95 44 1.0 6.0 0.00 1.31 0.00 37 1015.6
20260901191604 95 253 0.0 4.0 0.00 1.31 0.00 33 1015.8
20260901190100 94 0 0.0 5.0 0.00 1.31 0.00 34 1016.0
20260901184603 93 0 0.0 7.0 0.00 1.31 0.00 36 1016.2
20260901183103 94 317 1.0 7.0 0.00 1.31 0.00 35 1016.3
20260901181603 93 0 0.0 3.0 0.00 1.31 0.00 36 1016.6
20260901180059 93 146 1.0 5.0 0.00 1.31 0.00 36 1017.1
20260901174600 93 0 0.0 3.0 0.00 1.31 0.00 39 1017.1
20260901173101 92 156 0.0 7.0 0.00 1.31 0.00 39 1017.2
20260901171557 92 0 0.0 3.0 0.00 1.31 0.00 39 1017.3
20260901170121 91 86 1.0 4.0 0.00 1.31 0.00 39 1017.3
20260901164607 91 145 1.0 5.0 0.00 1.31 0.00 41 1017.5
20260901163059 90 217 0.0 7.0 0.00 1.31 0.00 43 1017.6
20260901161602 88 157 5.0 8.0 0.00 1.31 0.00 43 1017.5
20260901160103 89 146 1.0 5.0 0.00 1.31 0.00 45 1017.5
20260901154612 88 0 2.0 5.0 0.00 1.31 0.00 48 1017.5
20260901153113 87 138 0.0 4.0 0.00 1.31 0.00 52 1017.6
20260901151602 85 0 0.0 2.0 0.00 1.31 0.00 56 1017.5
20260901150110 83 0 0.0 4.0 0.00 1.31 0.00 59 1017.5
20260901144601 82 143 0.0 2.0 0.00 1.31 0.00 62 1017.6
20260901143102 78 0 0.0 0.0 0.00 1.31 0.00 70 1017.6
20260901141603 75 0 0.0 2.0 0.00 1.31 0.00 75 1017.6
20260901140109 73 323 1.0 2.0 0.00 1.31 0.00 79 1017.6
20260901134600 73 0 0.0 4.0 0.00 1.31 0.00 79 1017.3
20260901133112 72 0 2.0 4.0 0.00 1.31 0.00 79 1017.4
20260901131556 71 157 1.0 3.0 0.00 1.31 0.00 79 1017.2
20260901130106 71 0 0.0 3.0 0.00 1.31 0.00 79 1016.9
20260901124609 71 223 1.0 4.0 0.00 1.31 0.00 81 1016.9
20260901123117 71 224 2.0 4.0 0.00 1.31 0.00 81 1016.6
20260901121604 71 227 3.0 4.0 0.00 1.31 0.00 80 1016.2
20260901120210 71 249 1.0 3.0 0.00 1.31 0.00 79 1016.2
20260901120119 71 249 1.0 3.0 0.00 1.31 0.00 79 1016.2
20260901114601 72 240 1.0 4.0 0.00 1.31 0.00 79 1016.1
20260901113118 72 244 2.0 4.0 0.00 1.31 0.00 79 1016.2
20260901111604 72 234 2.0 3.0 0.00 1.31 0.00 80 1016.1
20260901110105 72 246 1.0 3.0 0.00 1.31 0.00 78 1016.2
20260901104559 73 278 1.0 2.0 0.00 1.31 0.00 77 1016.1
20260901103139 72 0 0.0 0.0 0.00 1.31 0.00 77 1016.0
20260901101601 73 0 0.0 1.0 0.00 1.31 0.00 79 1016.1
20260901100104 72 282 0.0 3.0 0.00 1.31 0.00 79 1015.9
20260901094557 71 0 0.0 0.0 0.00 1.31 0.00 80 1015.7
20260901093103 71 0 0.0 0.0 0.00 1.31 0.00 80 1015.9
20260901091600 72 0 0.0 0.0 0.00 1.31 0.00 81 1015.9
20260901090104 72 0 0.0 0.0 0.00 1.31 0.00 80 1015.9
20260901084600 73 0 1.0 3.0 0.00 1.31 0.00 80 1016.1
20260901083109 73 0 0.0 2.0 0.00 1.31 0.00 79 1015.9
20260901081602 74 322 1.0 2.0 0.00 1.31 0.00 77 1015.8
20260901074600 76 0 0.0 0.0 0.00 1.31 0.00 68 1015.7
20260901073105 77 0 0.0 0.0 0.00 1.31 0.00 64 1015.7
20260901071602 76 0 0.0 0.0 0.00 1.31 0.00 67 1015.7
20260901070059 77 0 0.0 0.0 0.00 1.31 0.00 65 1015.9
20260901064605 75 0 0.0 0.0 0.00 1.31 0.00 69 1015.8
20260901063116 73 0 0.0 0.0 0.00 1.31 0.00 76 1015.7
20260901061612 73 0 0.0 0.0 0.00 1.31 0.00 78 1015.5
20260901060108 74 0 0.0 3.0 0.00 1.31 0.00 76 1015.5
20260901054603 74 165 2.0 5.0 0.00 1.31 0.00 76 1015.3
20260901053101 73 0 0.0 0.0 0.00 1.31 0.00 79 1015.2
20260901051618 72 0 0.0 3.0 0.00 1.31 0.00 89 1015.2
20260901050109 72 140 1.0 5.0 0.00 1.31 0.00 89 1015.3